Aberdeen, United Kingdom

9:07 PM BST on August 27, 2016 (GMT +0100)
Dyce

Weather History for EGPD - December, 2012

Change the Weather History Date:

Tuesday, December 11, 2012

  Actual Average Record
Temperature  
Mean Temperature 34 °F -  
Max Temperature 38 °F 43 °F 57 °F (2005)
Min Temperature 30 °F 32 °F 24 °F (1999)
Degree Days  
Heating Degree Days 31    
Moisture  
Dew Point 30 °F    
Average Humidity 85    
Maximum Humidity 93    
Minimum Humidity 63    
Precipitation  
Precipitation 0.00 in 0.10 in - ()
Sea Level Pressure  
Sea Level Pressure 30.37 in    
Wind  
Wind Speed 5 mph ()    
Max Wind Speed 10 mph    
Max Gust Speed -    
Visibility 8.2 miles    
Events      
Averages and records for this station are not official NWS values.
T = Trace of Precipitation, MM = Missing Value Source: Averaged Metar Reports

Daily Weather History Graph

Daily Weather History Graph

Search for Another Location

Airport or City:

Trip Planner

Search our weather history database for the weather conditions in past years. The results will help you decide how hot, cold, wet, or windy it might be!

Date:

Astronomy

Dec. 11, 2012 Rise Set
Actual Time 8:38 AM GMT 3:25 PM GMT
Civil Twilight 7:49 AM GMT 4:15 PM GMT
Nautical Twilight 6:58 AM GMT 5:05 PM GMT
Astronomical Twilight 6:11 AM GMT 5:53 PM GMT
Moon 6:00 AM GMT (12/11) 2:04 PM GMT (12/11)
Length of Visible Light 8h 25m
Length of Day
6h 47m
Waning Crescent, 5% of the Moon is Illuminated
Dec 11
Waning Crescent
Dec 13
New
Dec 20
First Quarter
Dec 28
Full
Jan 5
Last Quarter

Hourly Weather History & Observations

Time (GMT) Temp. Windchill Dew Point Humidity Pressure Visibility Wind Dir Wind Speed Gust Speed Precip Events Conditions
12:20 AM 32.0 °F 27.5 °F 30.2 °F 93% 30.45 in - NNW 4.6 mph - N/A   Clear
12:50 AM 33.8 °F 27.0 °F 30.2 °F 87% 30.45 in 6.2 mi NW 8.1 mph - N/A   Unknown
1:20 AM 33.8 °F 26.4 °F 30.2 °F 87% 30.45 in - WNW 9.2 mph - N/A   Clear
1:50 AM 35.6 °F 28.0 °F 32.0 °F 87% 30.45 in 6.2 mi WNW 10.4 mph - N/A   Unknown
2:20 AM 33.8 °F 27.0 °F 32.0 °F 93% 30.45 in 6.2 mi WNW 8.1 mph - N/A   Unknown
2:50 AM 35 °F - 31 °F 78% 30.47 in 19 mi NW 9.2 mph - -  
2:50 AM 33.8 °F 29.6 °F 30.2 °F 87% 30.45 in 6.2 mi NW 4.6 mph - N/A   Unknown
3:20 AM 33.8 °F 27.7 °F 30.2 °F 87% 30.45 in - WNW 6.9 mph - N/A   Clear
3:50 AM 30.2 °F - 28.4 °F 93% 30.45 in - Variable 2.3 mph - N/A   Clear
4:20 AM 30.2 °F - 28.4 °F 93% 30.45 in 6.2 mi Variable 2.3 mph - N/A   Unknown
4:50 AM 30.2 °F 26.7 °F 28.4 °F 93% 30.45 in - SW 3.5 mph - N/A   Clear
5:20 AM 30.2 °F - 28.4 °F 93% 30.45 in 6.2 mi Variable 2.3 mph - N/A   Unknown
5:50 AM 30 °F - 27 °F 82% 30.46 in 16 mi ENE 2.3 mph - -  
5:50 AM 30.2 °F 26.7 °F 28.4 °F 93% 30.45 in - WSW 3.5 mph - N/A   Clear
6:20 AM 30.2 °F 24.3 °F 28.4 °F 93% 30.45 in - WSW 5.8 mph - N/A   Clear
6:50 AM 30.2 °F 24.3 °F 28.4 °F 93% 30.45 in - West 5.8 mph - N/A   Clear
7:20 AM 30.2 °F - 28.4 °F 93% 30.45 in 6.2 mi Variable 2.3 mph - N/A   Partly Cloudy
7:50 AM 30.2 °F - 28.4 °F 93% 30.45 in 6.2 mi Variable 2.3 mph - N/A   Partly Cloudy
8:20 AM 32.0 °F 28.7 °F 30.2 °F 93% 30.45 in 6.2 mi West 3.5 mph - N/A   Partly Cloudy
8:50 AM 36 °F - 30 °F 73% 30.45 in 18 mi NNE 5.8 mph - -   Partly Cloudy
8:50 AM 32.0 °F 28.7 °F 30.2 °F 93% 30.42 in 6.2 mi Variable 3.5 mph - N/A   Partly Cloudy
9:20 AM 33.8 °F 28.6 °F 30.2 °F 87% 30.42 in 6.2 mi WSW 5.8 mph - N/A   Partly Cloudy
9:50 AM 33.8 °F 28.6 °F 30.2 °F 87% 30.42 in 6.2 mi SW 5.8 mph - N/A   Scattered Clouds
10:20 AM 33.8 °F 28.6 °F 30.2 °F 87% 30.42 in 6.2 mi WSW 5.8 mph - N/A   Scattered Clouds
10:50 AM 35.6 °F 31.7 °F 30.2 °F 81% 30.42 in 6.2 mi SW 4.6 mph - N/A   Scattered Clouds
11:20 AM 35.6 °F 31.7 °F 30.2 °F 81% 30.42 in 6.2 mi SW 4.6 mph - N/A   Scattered Clouds
11:50 AM 37 °F - 31 °F 72% 30.41 in 19 mi NW 9.2 mph - -   Mostly Cloudy
11:50 AM 35.6 °F 31.7 °F 32.0 °F 87% 30.39 in 6.2 mi WSW 4.6 mph - N/A   Scattered Clouds
12:20 PM 35.6 °F 30.7 °F 30.2 °F 81% 30.39 in 6.2 mi WSW 5.8 mph - N/A   Mostly Cloudy
12:50 PM 35.6 °F 31.7 °F 32.0 °F 87% 30.39 in 6.2 mi West 4.6 mph - N/A   Overcast
1:20 PM 35.6 °F 31.7 °F 32.0 °F 87% 30.39 in 6.2 mi WSW 4.6 mph - N/A   Mostly Cloudy
1:50 PM 37.4 °F 34.9 °F 32.0 °F 81% 30.36 in 6.2 mi Variable 3.5 mph - N/A   Mostly Cloudy
2:20 PM 35.6 °F - 32.0 °F 87% 30.36 in 6.2 mi Variable 2.3 mph - N/A   Mostly Cloudy
2:50 PM 36 °F - 30 °F 73% 30.37 in 17 mi East 3.5 mph - -   Partly Cloudy
2:50 PM 35.6 °F 31.7 °F 32.0 °F 87% 30.36 in 6.2 mi WSW 4.6 mph - N/A   Mostly Cloudy
3:20 PM 35.6 °F 30.7 °F 32.0 °F 87% 30.36 in 6.2 mi WSW 5.8 mph - N/A   Mostly Cloudy
3:50 PM 35.6 °F 31.7 °F 30.2 °F 81% 30.33 in 6.2 mi WSW 4.6 mph - N/A   Overcast
4:20 PM 35.6 °F 32.8 °F 32.0 °F 87% 30.33 in 6.2 mi Variable 3.5 mph - N/A   Mostly Cloudy
4:50 PM 35.6 °F - 32.0 °F 87% 30.33 in 6.2 mi Variable 2.3 mph - N/A   Mostly Cloudy
5:20 PM 35.6 °F - 30.2 °F 81% 30.33 in 6.2 mi Variable 2.3 mph - N/A   Mostly Cloudy
5:50 PM 38 °F - 30 °F 63% 30.32 in 22 mi NW 9.2 mph - -   Overcast
5:50 PM 35.6 °F 32.8 °F 30.2 °F 81% 30.30 in 6.2 mi SW 3.5 mph - N/A   Mostly Cloudy
6:20 PM 35.6 °F 30.7 °F 30.2 °F 81% 30.30 in 6.2 mi SW 5.8 mph - N/A   Mostly Cloudy
6:50 PM 35.6 °F 30.7 °F 30.2 °F 81% 30.30 in 6.2 mi West 5.8 mph - N/A   Mostly Cloudy
7:20 PM 35.6 °F 32.8 °F 30.2 °F 81% 30.27 in 6.2 mi Variable 3.5 mph - N/A   Mostly Cloudy
7:50 PM 33.8 °F 28.6 °F 30.2 °F 87% 30.27 in - West 5.8 mph - N/A   Clear
8:20 PM 33.8 °F 29.6 °F 30.2 °F 87% 30.27 in - WSW 4.6 mph - N/A   Clear
8:50 PM 33 °F - 29 °F 81% 30.28 in 16 mi SSW 1.2 mph - -   Overcast
8:50 PM 33.8 °F 29.6 °F 28.4 °F 81% 30.27 in - West 4.6 mph - N/A   Clear
9:20 PM 33.8 °F 29.6 °F 28.4 °F 81% 30.24 in - WSW 4.6 mph - N/A   Clear
9:50 PM 33.8 °F 30.8 °F 28.4 °F 81% 30.24 in - Variable 3.5 mph - N/A   Clear
10:20 PM 32.0 °F 27.5 °F 28.4 °F 87% 30.24 in - West 4.6 mph - N/A   Clear
10:50 PM 32.0 °F - 28.4 °F 87% 30.21 in - Variable 2.3 mph - N/A   Clear
11:20 PM 32.0 °F 27.5 °F 26.6 °F 80% 30.21 in 6.2 mi West 4.6 mph - N/A   Unknown
11:50 PM 30 °F - 27 °F 85% 30.22 in 18 mi West 1.2 mph - -   Scattered Clouds
11:50 PM 30.2 °F 24.3 °F 26.6 °F 86% 30.21 in - West 5.8 mph - N/A   Clear